Weather History for KNEL - January, 2014

Change the Weather History Date:

Friday, January 3, 2014

  Actual Average Record
Temperature  
Mean Temperature 16 °F -  
Max Temperature 1 °F 39 °F - (-1)
Min Temperature 3 °F 29 °F - (-1)
Degree Days  
Heating Degree Days 48    
Moisture  
Dew Point 7 °F    
Average Humidity 71    
Maximum Humidity 88    
Minimum Humidity 45    
Precipitation  
Precipitation 0.00 in - - ()
Sea Level Pressure  
Sea Level Pressure 29.96 in    
Wind  
Wind Speed 9 mph (NNW)    
Max Wind Speed 18 mph    
Max Gust Speed 30 mph    
Averages and records for this station are not official NWS values.
T = Trace of Precipitation, MM = Missing Value Source: NWS Daily Summary

Daily Weather History Graph

Daily Weather History Graph

Search for Another Location

Airport or City:

Trip Planner

Search our weather history database for the weather conditions in past years. The results will help you decide how hot, cold, wet, or windy it might be!

Date:

Astronomy

Jan. 03, 2014 Rise Set
Actual Time 7:19 AM EST 4:44 PM EST
Civil Twilight 6:49 AM EST 5:14 PM EST
Nautical Twilight 6:15 AM EST 5:48 PM EST
Astronomical Twilight 5:42 AM EST 6:21 PM EST
Moon 8:43 AM EST 7:50 PM EST
Length of Visible Light 10h 25m
Length of Day
9h 25m
Waxing Crescent, 8% of the Moon is Illuminated
Jan 3
Waxing Crescent
Jan 7
First Quarter
Jan 15
Full
Jan 24
Last Quarter
Jan 30
New

Hourly Weather History & Observations

Time (EST) Temp. Windchill Dew Point Humidity Pressure Visibility Wind Dir Wind Speed Gust Speed Precip Events Conditions
12:00 AM 23.0 °F 15.8 °F 19.9 °F 88% 29.61 in - Variable 5.8 mph 16.1 mph 0.00 in Snow Snow
12:53 AM 21.2 °F 11.7 °F 17.6 °F 86% 29.59 in - NNE 8.1 mph - 0.00 in Snow Snow
1:00 AM 21.0 °F 12.4 °F 18.0 °F 88% 29.57 in - North 6.9 mph - 0.00 in Snow Snow
2:00 AM 17.1 °F 4.3 °F 12.9 °F 84% 29.61 in - North 11.5 mph 21.9 mph 0.00 in Snow Snow
3:16 AM 12.2 °F 0.7 °F 8.6 °F 85% 29.66 in - NNW 8.1 mph 17.3 mph 0.00 in Snow Snow
4:00 AM 12.0 °F -2.0 °F 8.1 °F 84% 29.68 in - NNW 11.5 mph 18.4 mph 0.00 in Snow Heavy Snow
4:56 AM 12.2 °F -3.1 °F 8.6 °F 85% 29.72 in - North 13.8 mph 19.6 mph 0.00 in Snow Snow
5:00 AM 12.9 °F -0.2 °F 9.0 °F 84% 29.73 in - North 10.4 mph 27.6 mph 0.00 in Snow Snow
5:09 AM 12.2 °F -1.0 °F 8.6 °F 85% 29.72 in - North 10.4 mph 24.2 mph 0.00 in Snow Light Snow
5:38 AM 14.0 °F 2.9 °F 8.6 °F 79% 29.75 in - NNW 8.1 mph 19.6 mph 0.00 in Snow Light Snow
6:00 AM 15.1 °F 3.3 °F 10.0 °F 80% 29.77 in - North 9.2 mph 18.4 mph 0.00 in Snow Snow
6:09 AM 15.8 °F 6.1 °F 10.4 °F 79% 29.78 in - Variable 6.9 mph 16.1 mph 0.00 in Snow Snow
6:53 AM 15.8 °F 6.1 °F 10.4 °F 79% 29.83 in - NW 6.9 mph - 0.00 in Snow Light Snow
7:00 AM 16.0 °F 6.3 °F 12.0 °F 84% 29.83 in - Variable 6.9 mph - 0.00 in Snow Light Snow
7:49 AM 15.8 °F 5.1 °F 12.2 °F 86% 29.89 in - NW 8.1 mph 17.3 mph 0.00 in Snow Snow
8:00 AM 15.1 °F 1.8 °F 10.9 °F 84% 29.90 in - NW 11.5 mph 19.6 mph 0.00 in Snow Snow
9:00 AM 15.1 °F 5.2 °F 10.0 °F 80% 29.96 in - NW 6.9 mph 20.7 mph 0.00 in Snow Light Snow
10:00 AM 16.0 °F 1.7 °F 10.0 °F 77% 30.01 in - NW 13.8 mph 19.6 mph 0.00 in Snow Light Snow
11:00 AM 17.6 °F 2.7 °F 6.8 °F 63% 30.05 in - NW 16.1 mph 26.5 mph 0.00 in   Overcast
11:06 AM 17.1 °F 1.0 °F 7.0 °F 65% 30.05 in - NW 18.4 mph 28.8 mph 0.00 in   Overcast
1:00 PM 17.1 °F 2.0 °F 3.0 °F 54% 30.13 in - NW 16.1 mph 29.9 mph 0.00 in   Clear
2:00 PM 18.0 °F 5.4 °F 1.9 °F 50% 30.16 in - NW 11.5 mph 25.3 mph 0.00 in   Clear
2:38 PM 17.6 °F 2.7 °F 1.4 °F 49% 30.19 in - NW 16.1 mph 29.9 mph 0.00 in   Partly Cloudy
3:00 PM 18.0 °F 4.2 °F 1.0 °F 48% 30.20 in - NW 13.8 mph 23.0 mph 0.00 in   Clear
4:00 PM 17.1 °F 4.3 °F -0.9 °F 45% 30.26 in - NNW 11.5 mph 16.1 mph N/A   Clear
5:00 PM 14.0 °F 5.1 °F -0.9 °F 52% 30.32 in - NW 5.8 mph - N/A   Clear
7:00 PM 12.0 °F 4.1 °F -4.0 °F 49% 30.42 in - NW 4.6 mph - N/A   Clear
8:00 PM 10.9 °F 1.4 °F -5.1 °F 49% 30.44 in - NNW 5.8 mph - N/A   Clear
9:00 PM 10.0 °F 3.6 °F -5.1 °F 51% 30.46 in - NNW 3.5 mph - N/A   Clear
11:00 PM 3.9 °F -3.4 °F -6.0 °F 64% 30.48 in - WNW 3.5 mph - N/A   Clear